Buffalo, MN

10:35 AM CDT on June 25, 2017 (GMT -0500)
Buffalo

Weather History for KCFE - December, 2012

Change the Weather History Date:

Friday, December 21, 2012

  Actual Average (KMIC) Record (KMIC)
Temperature  
Mean Temperature 10 °F -  
Max Temperature 15 °F 24 °F 40 °F (1991)
Min Temperature 4 °F 9 °F -11 °F (1999)
Degree Days  
Heating Degree Days 56    
Moisture  
Dew Point 5 °F    
Average Humidity 82    
Maximum Humidity 89    
Minimum Humidity 70    
Precipitation  
Precipitation 0.00 in - - ()
Sea Level Pressure  
Sea Level Pressure 30.21 in    
Wind  
Wind Speed 6 mph (WNW)    
Max Wind Speed 12 mph    
Max Gust Speed -    
Visibility 10 miles    
Events      
Averages and records for this station are not official NWS values.
T = Trace of Precipitation, MM = Missing Value Source: NWS Daily Summary

Daily Weather History Graph

Daily Weather History Graph

Search for Another Location

Airport or City:

Trip Planner

Search our weather history database for the weather conditions in past years. The results will help you decide how hot, cold, wet, or windy it might be!

Date:

Astronomy

Dec. 21, 2012 Rise Set
Actual Time 7:51 AM CST 4:36 PM CST
Civil Twilight 7:17 AM CST 5:10 PM CST
Nautical Twilight 6:39 AM CST 5:47 PM CST
Astronomical Twilight 6:04 AM CST 6:23 PM CST
Moon 12:34 PM CST (12/21) 1:27 AM CST (12/21)
Length of Visible Light 9h 52m
Length of Day
8h 44m
Waxing Gibbous, 65% of the Moon is Illuminated
Dec 21
Waxing Gibbous
Dec 28
Full
Jan 4
Last Quarter
Jan 11
New
Jan 18
First Quarter

Hourly Weather History & Observations

Time (CST) Temp. Windchill Dew Point Humidity Pressure Visibility Wind Dir Wind Speed Gust Speed Precip Events Conditions
12:14 AM 10.4 °F -1.5 °F 7.2 °F 87% 30.10 in 10.0 mi NW 8.1 mph - N/A   Clear
12:35 AM 10.4 °F -3.3 °F 7.3 °F 87% 30.10 in 10.0 mi NW 10.4 mph - N/A   Clear
12:55 AM 10.0 °F -1.9 °F 7.2 °F 88% 30.10 in 10.0 mi NW 8.1 mph - N/A   Clear
1:14 AM 10.2 °F -1.7 °F 7.2 °F 87% 30.11 in 10.0 mi NW 8.1 mph - N/A   Clear
1:35 AM 9.9 °F -4.7 °F 6.8 °F 87% 30.11 in 10.0 mi WNW 11.5 mph - N/A   Clear
1:55 AM 9.5 °F -2.6 °F 6.8 °F 89% 30.12 in 10.0 mi WNW 8.1 mph - N/A   Clear
2:14 AM 9.5 °F -4.4 °F 6.6 °F 88% 30.14 in 10.0 mi WNW 10.4 mph - N/A   Clear
2:35 AM 9.3 °F -2.8 °F 6.4 °F 88% 30.15 in 10.0 mi WNW 8.1 mph - N/A   Clear
2:55 AM 8.6 °F -3.7 °F 5.7 °F 88% 30.15 in 10.0 mi NW 8.1 mph - N/A   Clear
3:14 AM 8.2 °F -4.1 °F 5.4 °F 88% 30.15 in 10.0 mi NW 8.1 mph - N/A   Clear
3:35 AM 8.1 °F -4.3 °F 5.0 °F 87% 30.15 in 10.0 mi NW 8.1 mph - N/A   Clear
3:55 AM 8.1 °F -6.2 °F 5.0 °F 87% 30.16 in 10.0 mi NW 10.4 mph - N/A   Clear
4:14 AM 7.7 °F -4.8 °F 4.8 °F 88% 30.16 in 10.0 mi NW 8.1 mph - N/A   Clear
4:35 AM 7.3 °F -7.1 °F 4.5 °F 88% 30.18 in 10.0 mi NW 10.4 mph - N/A   Clear
4:55 AM 7.3 °F -2.8 °F 4.1 °F 87% 30.17 in 10.0 mi NNW 5.8 mph - N/A   Clear
5:14 AM 7.3 °F -4.1 °F 4.3 °F 87% 30.18 in 10.0 mi WNW 6.9 mph - N/A   Clear
5:35 AM 6.8 °F -5.9 °F 3.9 °F 88% 30.19 in 10.0 mi WNW 8.1 mph - N/A   Clear
5:55 AM 6.4 °F -5.2 °F 3.6 °F 88% 30.20 in 10.0 mi WNW 6.9 mph - N/A   Clear
6:14 AM 6.3 °F -6.5 °F 3.2 °F 87% 30.21 in 10.0 mi NW 8.1 mph - N/A   Clear
6:35 AM 5.9 °F -7.0 °F 3.0 °F 88% 30.21 in 10.0 mi NW 8.1 mph - N/A   Clear
6:55 AM 5.5 °F -7.4 °F 2.7 °F 88% 30.21 in 10.0 mi WNW 8.1 mph - N/A   Clear
7:14 AM 5.7 °F -6.1 °F 2.7 °F 87% 30.22 in 10.0 mi WNW 6.9 mph - N/A   Clear
7:34 AM 5.4 °F -7.6 °F 2.3 °F 87% 30.24 in 10.0 mi WNW 8.1 mph - N/A   Clear
7:55 AM 5.0 °F -8.1 °F 2.1 °F 88% 30.24 in 10.0 mi WNW 8.1 mph - N/A   Clear
8:15 AM 4.8 °F -7.1 °F 1.8 °F 87% 30.26 in 10.0 mi WNW 6.9 mph - N/A   Clear
8:34 AM 5.0 °F -6.9 °F 1.9 °F 87% 30.25 in 10.0 mi WNW 6.9 mph - N/A   Clear
8:55 AM 5.9 °F -5.8 °F 2.3 °F 85% 30.26 in 10.0 mi NW 6.9 mph - N/A   Clear
9:15 AM 6.6 °F -5.0 °F 2.7 °F 84% 30.26 in 10.0 mi WNW 6.9 mph - N/A   Clear
9:34 AM 7.7 °F 1.0 °F 3.2 °F 82% 30.27 in 10.0 mi WNW 3.5 mph - N/A   Clear
9:55 AM 8.2 °F -3.0 °F 3.2 °F 80% 30.28 in 10.0 mi WNW 6.9 mph - N/A   Clear
10:14 AM 9.1 °F 2.6 °F 3.9 °F 79% 30.27 in 10.0 mi NW 3.5 mph - N/A   Clear
10:35 AM 10.2 °F 2.0 °F 4.8 °F 79% 30.27 in 10.0 mi NW 4.6 mph - N/A   Clear
10:55 AM 10.8 °F 2.7 °F 4.8 °F 77% 30.28 in 10.0 mi WNW 4.6 mph - N/A   Clear
11:14 AM 11.3 °F 3.3 °F 4.8 °F 75% 30.27 in 10.0 mi WNW 4.6 mph - N/A   Clear
11:35 AM 12.0 °F 2.7 °F 5.5 °F 75% 30.26 in 10.0 mi WNW 5.8 mph - N/A   Clear
11:55 AM 12.9 °F 6.9 °F 6.1 °F 74% 30.27 in 10.0 mi WSW 3.5 mph - N/A   Clear
12:14 PM 13.1 °F 7.1 °F 6.1 °F 74% 30.26 in 10.0 mi WSW 3.5 mph - N/A   Clear
12:35 PM 14.0 °F 6.5 °F 6.6 °F 72% 30.26 in 10.0 mi NW 4.6 mph - N/A   Clear
12:55 PM 14.7 °F 9.0 °F 6.8 °F 71% 30.24 in 10.0 mi North 3.5 mph - N/A   Clear
1:14 PM 15.3 °F - 7.2 °F 70% 30.23 in 10.0 mi Calm Calm - N/A   Clear
1:35 PM 14.4 °F - 6.6 °F 71% 30.23 in 10.0 mi Calm Calm - N/A   Clear
1:55 PM 15.3 °F 9.6 °F 7.5 °F 71% 30.24 in 10.0 mi SW 3.5 mph - N/A   Clear
2:14 PM 15.8 °F 6.1 °F 7.7 °F 70% 30.23 in 10.0 mi West 6.9 mph - N/A   Clear
2:35 PM 15.8 °F 5.1 °F 8.1 °F 72% 30.24 in 10.0 mi WSW 8.1 mph - N/A   Clear
2:55 PM 15.8 °F 7.2 °F 8.1 °F 72% 30.23 in 10.0 mi West 5.8 mph - N/A   Clear
3:14 PM 15.8 °F 10.2 °F 7.9 °F 71% 30.23 in 10.0 mi West 3.5 mph - N/A   Clear
3:35 PM 15.8 °F 7.2 °F 7.7 °F 70% 30.24 in 10.0 mi West 5.8 mph - N/A   Clear
3:55 PM 15.8 °F - 7.7 °F 70% 30.23 in 10.0 mi Calm Calm - N/A   Clear
4:14 PM 15.3 °F - 7.7 °F 72% 30.23 in 10.0 mi Calm Calm - N/A   Clear
4:35 PM 14.0 °F 6.5 °F 7.3 °F 75% 30.24 in 10.0 mi SSW 4.6 mph - N/A   Clear
4:55 PM 12.2 °F - 6.4 °F 78% 30.24 in 10.0 mi Calm Calm - N/A   Clear
5:14 PM 12.0 °F - 5.9 °F 76% 30.24 in 10.0 mi Calm Calm - N/A   Clear
5:35 PM 11.5 °F 5.3 °F 5.9 °F 78% 30.24 in 10.0 mi SW 3.5 mph - N/A   Clear
5:55 PM 12.0 °F 5.9 °F 6.6 °F 79% 30.23 in 10.0 mi SSW 3.5 mph - N/A   Clear
6:14 PM 11.3 °F 5.1 °F 6.4 °F 81% 30.24 in 10.0 mi SSW 3.5 mph - N/A   Clear
6:35 PM 10.6 °F - 6.1 °F 82% 30.24 in 10.0 mi Calm Calm - N/A   Clear
6:55 PM 10.2 °F - 5.9 °F 83% 30.25 in 10.0 mi Calm Calm - N/A   Clear
7:14 PM 10.0 °F - 5.7 °F 83% 30.24 in 10.0 mi Calm Calm - N/A   Clear
7:35 PM 6.3 °F - 3.2 °F 87% 30.23 in 10.0 mi Calm Calm - N/A   Clear
7:55 PM 8.4 °F - 4.6 °F 85% 30.22 in 10.0 mi Calm Calm - N/A   Clear
8:14 PM 6.4 °F - 3.6 °F 88% 30.21 in 10.0 mi Calm Calm - N/A   Clear
8:35 PM 6.4 °F - 3.9 °F 89% 30.21 in 10.0 mi Calm Calm - N/A   Clear
8:55 PM 8.2 °F - 5.0 °F 87% 30.21 in 10.0 mi Calm Calm - N/A   Clear
9:14 PM 8.2 °F - 4.6 °F 85% 30.21 in 10.0 mi Calm Calm - N/A   Clear
9:35 PM 7.7 °F - 4.5 °F 87% 30.20 in 10.0 mi Calm Calm - N/A   Clear
9:55 PM 7.7 °F 1.0 °F 4.5 °F 87% 30.20 in 10.0 mi South 3.5 mph - N/A   Clear
10:14 PM 7.5 °F - 3.9 °F 85% 30.20 in 10.0 mi Calm Calm - N/A   Clear
10:35 PM 7.2 °F -1.5 °F 3.6 °F 85% 30.20 in 10.0 mi South 4.6 mph - N/A   Clear
10:55 PM 6.8 °F - 3.7 °F 87% 30.19 in 10.0 mi Calm Calm - N/A   Clear
11:14 PM 6.8 °F - 3.6 °F 87% 30.19 in 10.0 mi Calm Calm - N/A   Clear
11:35 PM 6.8 °F - 3.6 °F 87% 30.18 in 10.0 mi Calm Calm - N/A   Clear
11:55 PM 5.9 °F - 2.8 °F 87% 30.18 in 10.0 mi Calm Calm - N/A   Clear